{"data":{"norad_id":67627,"epoch":"2026-05-25T01:16:40.848384Z","epoch_age_seconds":80879,"freshness":"FRESH","line1":"1 67627U 26020L   26145.05325056  .00018104  00000+0  66545-3 0  9994","line2":"2 67627  43.0025  68.4176 0001571 274.4087  85.6585 15.27597250 17796","mean_motion":15.2759725,"eccentricity":0.0001571,"inclination_deg":43.0025,"raan_deg":68.4176,"arg_perigee_deg":274.4087,"mean_anomaly_deg":85.6585,"bstar":0.00066545,"rev_number":1779,"period_min":94.265684230578,"perigee_km":481.91955959894,"apogee_km":484.07532804118,"semimajor_km":6861.1344438201,"source":"CELESTRAK","updated_at":"2026-05-25T13:38:21.651296Z"}}